Waarnemingen

Advertentie
Mijn weer
Benavente, Spanje (8056): temperatuur & dauwpunt: 11.01.2018 08:00:00 - 17.01.2018 08:00:00 (CET)Benavente, Spanje (8056): windsnelheid & windstoten: 11.01.2018 08:00:00 - 17.01.2018 08:00:00 (CET)Benavente, Spanje (8056): windrichting: 11.01.2018 08:00:00 - 17.01.2018 08:00:00 (CET)Benavente, Spanje (8056): luchtdruk: 11.01.2018 08:00:00 - 17.01.2018 08:00:00 (CET)Benavente, Spanje (8056): zicht: 11.01.2018 08:00:00 - 17.01.2018 08:00:00 (CET)Benavente, Spanje (8056): Zonneschijnduur: 11.01.2018 08:00:00 - 17.01.2018 08:00:00 (CET)Benavente, Spanje (8056): neerslag: 11.01.2018 08:00:00 - 17.01.2018 08:00:00 (CET)
Datum & Tijd tt [°C] td [°C] ff [km/u] ff [kn] fx [km/u] fx [kn] dd ppp [hPa] vv [km] sd [min] rr [mm]
17.01.2018 08:00:00 - - - - - - - - - - -
17.01.2018 07:00:00 6,3 1,5 11 6 29 16 NNW 1028,3 20 0 -
17.01.2018 06:00:00 2,9 1,5 5 3 12 7 OZO 1029,2 20 0 0,0
17.01.2018 05:00:00 4,7 3,8 6 3 13 7 ZW 1028,0 20 0 0,0
17.01.2018 04:00:00 3,3 1,9 3 1 6 4 WNW 1028,7 14 0 0,0
17.01.2018 03:00:00 4,8 2,9 1 1 16 9 W 1028,0 14 0 0,0
17.01.2018 02:00:00 6,8 4,6 9 5 16 9 ZZW 1027,1 20 0 0,0
17.01.2018 01:00:00 6,4 4,6 9 5 14 8 ZW 1027,8 20 0 -
17.01.2018 00:00:00 8,4 5,3 6 3 16 9 WZW 1027,3 20 0 0,0
16.01.2018 23:00:00 7,1 5,6 8 4 16 9 ZW 1027,6 20 0 0,0
16.01.2018 22:00:00 7,1 5,3 5 3 11 6 Z 1027,5 20 0 0,0
16.01.2018 21:00:00 8,3 6,2 5 3 11 6 WZW 1027,3 20 0 0,0
16.01.2018 20:00:00 9,3 6,4 6 3 22 12 ZW 1026,8 20 0 0,0
16.01.2018 19:00:00 10,2 6,8 9 5 28 15 WZW 1025,7 20 0 -
16.01.2018 18:00:00 11,6 7,3 12 6 24 13 ZW 1025,3 20 45 0,0
16.01.2018 17:00:00 13,2 7,4 14 7 29 15 ZZW 1024,9 20 60 0,0
16.01.2018 16:00:00 14,1 7,6 13 7 30 16 ZW 1024,3 20 60 0,0
16.01.2018 15:00:00 14,6 7,4 13 7 24 13 ZW 1024,3 20 60 0,0
16.01.2018 14:00:00 14,0 7,6 11 6 24 13 WZW 1025,5 20 60 0,0
16.01.2018 13:00:00 13,1 7,3 11 6 22 12 ZW 1026,3 20 60 -
16.01.2018 12:00:00 10,8 6,5 7 4 14 8 ZZW 1027,9 20 60 0,0
16.01.2018 11:00:00 8,1 5,5 5 3 13 7 ZZW 1028,7 20 55 0,0
16.01.2018 10:00:00 4,7 3,8 9 5 14 8 ZZW 1029,2 20 16 0,0
16.01.2018 09:00:00 3,0 1,9 6 3 10 5 ZZW 1029,4 9 0 0,0
16.01.2018 08:00:00 3,5 2,3 4 2 11 6 Z 1028,8 9 0 0,0
16.01.2018 07:00:00 3,9 2,5 6 3 18 10 ZZW 1028,1 16 0 -
16.01.2018 06:00:00 4,4 2,7 6 3 17 9 Z 1028,0 20 0 0,0
16.01.2018 05:00:00 5,4 3,2 8 5 22 12 WZW 1027,6 20 0 0,0
16.01.2018 04:00:00 5,5 3,2 10 5 23 12 WZW 1027,7 20 0 0,0
16.01.2018 03:00:00 5,6 3,4 8 5 16 9 ZW 1027,8 20 0 0,0
16.01.2018 02:00:00 5,1 2,5 4 2 16 9 ZZW 1028,1 20 0 0,0
16.01.2018 01:00:00 5,8 2,3 8 5 21 11 WZW 1028,2 20 0 -
16.01.2018 00:00:00 6,1 2,1 11 6 24 13 W 1028,2 20 0 0,0
15.01.2018 23:00:00 6,4 1,5 11 6 21 11 WZW 1028,1 20 0 0,0
15.01.2018 22:00:00 6,4 0,9 10 6 20 11 WZW 1027,9 20 0 0,0
15.01.2018 21:00:00 5,9 0,9 9 5 19 10 ZW 1027,4 20 0 0,0
15.01.2018 20:00:00 5,7 1,1 6 3 19 10 ZZW 1027,3 20 0 0,0
15.01.2018 19:00:00 5,8 0,9 11 6 18 10 ZW 1027,1 20 0 -
15.01.2018 18:00:00 5,4 3,4 1 1 5 3 ZZW 1026,8 20 8 0,0
15.01.2018 17:00:00 5,5 3,6 3 1 6 3 ONO 1026,4 20 3 0,0
15.01.2018 16:00:00 4,3 3,0 2 1 16 9 NNO 1027,0 20 0 0,0
15.01.2018 15:00:00 3,2 2,5 3 2 13 7 O 1027,7 20 0 0,0
15.01.2018 14:00:00 1,5 0,9 6 4 16 9 ZZW 1028,9 6 0 0,0
15.01.2018 13:00:00 0,0 -0,6 5 3 16 9 Z - - 0 -
15.01.2018 12:00:00 -0,7 -1,2 4 2 15 8 ZW 1031,1 0,2 0 0,0
15.01.2018 11:00:00 -1,6 -2,2 6 4 15 8 Z 1031,2 0,3 0 0,0
15.01.2018 10:00:00 -2,0 -2,5 4 2 10 6 Z 1030,9 0,2 0 0,0
15.01.2018 09:00:00 -2,1 -2,7 4 2 7 4 Z 1030,3 0,2 0 0,0
15.01.2018 08:00:00 -2,0 -2,5 3 2 6 4 N 1029,9 0,3 0 0,0
15.01.2018 07:00:00 -1,6 -2,2 2 1 6 4 N 1029,0 0,2 0 -
15.01.2018 06:00:00 -1,6 -2,2 1 1 6 3 ZZO 1028,6 0,1 0 0,0
15.01.2018 05:00:00 -1,3 -2,0 3 1 6 3 ZZW 1028,4 0,1 0 0,0
15.01.2018 04:00:00 -1,4 -2,0 1 1 6 4 Z 1028,6 0,2 0 0,0
15.01.2018 03:00:00 -1,2 -1,7 2 1 7 4 ZW 1028,1 0,1 0 0,0
15.01.2018 02:00:00 -0,8 -1,4 3 2 8 4 NNW 1028,0 0,1 0 0,0
15.01.2018 01:00:00 -0,8 -1,4 3 2 10 5 NO 1028,0 0,2 0 -
15.01.2018 00:00:00 -0,7 -1,4 5 3 11 6 N 1027,7 0,2 0 0,0
14.01.2018 23:00:00 -1,2 -2,0 4 2 7 4 N 1026,9 0,4 0 0,0
14.01.2018 22:00:00 -0,6 -1,7 0 0 5 3 N 1026,2 3,2 0 0,0
14.01.2018 21:00:00 0,2 -1,0 3 1 4 2 N 1025,8 5 0 0,0
14.01.2018 20:00:00 0,9 -0,5 1 1 5 3 ONO 1024,9 13 0 0,0
14.01.2018 19:00:00 1,9 0,2 3 2 8 5 ONO 1023,6 14 0 -
14.01.2018 18:00:00 3,3 0,9 4 2 12 6 O 1021,9 20 39 0,0
14.01.2018 17:00:00 4,3 1,3 5 3 10 6 O 1021,2 20 60 0,0
14.01.2018 16:00:00 4,9 1,5 3 2 11 6 Z 1020,0 20 50 0,0
14.01.2018 15:00:00 3,7 1,3 4 2 9 5 Z 1020,6 20 30 0,0
14.01.2018 14:00:00 1,3 0,4 1 1 7 4 N 1021,6 13 0 0,0
14.01.2018 13:00:00 0,7 0,0 5 3 11 6 ZZW 1022,2 11 0 -
14.01.2018 12:00:00 -0,4 -1,0 3 2 8 4 ZW 1023,0 0,9 0 0,0
14.01.2018 11:00:00 -1,0 -1,4 2 1 7 4 WZW 1022,7 0,2 0 0,0
14.01.2018 10:00:00 -1,4 -2,0 2 1 12 6 NW 1022,2 0,3 0 0,0
14.01.2018 09:00:00 -1,0 -1,4 5 3 13 7 WZW 1021,5 0,3 0 0,0
14.01.2018 08:00:00 -0,9 -1,7 3 1 20 11 ONO 1020,9 0,2 0 0,0
14.01.2018 07:00:00 -0,4 -1,2 9 5 20 11 W 1020,3 4,4 0 -
14.01.2018 06:00:00 -0,4 -1,2 8 4 19 10 W 1020,3 0,3 0 0,0
14.01.2018 05:00:00 0,0 -0,7 10 6 21 11 W 1020,3 0,5 0 0,0
14.01.2018 04:00:00 0,2 -0,7 5 3 14 8 WZW 1020,1 6 0 0,0
14.01.2018 03:00:00 0,9 0,0 9 5 17 9 W 1019,5 20 0 0,0
14.01.2018 02:00:00 -0,3 -1,0 5 3 11 6 WZW 1020,3 20 0 0,0
14.01.2018 01:00:00 -1,5 -2,2 1 1 6 3 W 1021,0 0,2 0 -
14.01.2018 00:00:00 -0,3 -1,1 3 1 8 4 W - - 0 0,0
13.01.2018 23:00:00 -0,8 -1,7 2 1 5 3 WNW 1020,1 2,3 0 0,0
13.01.2018 22:00:00 0,4 -0,5 4 2 10 6 ZW 1019,6 3,0 0 0,0
13.01.2018 21:00:00 0,5 -0,5 5 3 8 5 ZZW 1019,6 10 0 0,0
13.01.2018 20:00:00 1,3 0,2 3 2 9 5 WZW 1018,9 13 0 0,0
13.01.2018 19:00:00 2,0 0,2 1 1 12 7 WZW 1018,3 16 0 -
13.01.2018 18:00:00 3,2 1,1 5 3 17 9 W 1017,5 20 0 0,0
13.01.2018 17:00:00 3,9 1,1 8 4 18 10 W 1017,0 20 19 0,0
13.01.2018 16:00:00 3,9 1,5 8 5 17 9 WNW 1016,5 20 15 0,0
13.01.2018 15:00:00 2,8 1,3 10 5 21 11 WNW 1016,7 16 0 0,0
13.01.2018 14:00:00 2,8 1,5 6 3 10 5 ZZW 1016,6 19 0 0,0
13.01.2018 13:00:00 2,1 1,3 2 1 6 3 ZZO 1017,7 7 0 -
13.01.2018 12:00:00 1,2 0,4 2 1 6 3 O 1018,9 4,1 0 0,8
13.01.2018 11:00:00 1,1 0,2 1 1 6 3 NO 1018,9 3,3 0 2,2
13.01.2018 10:00:00 1,5 0,6 2 1 6 3 O 1018,7 2,7 0 1,4
13.01.2018 09:00:00 1,4 0,6 3 2 8 5 N 1018,3 2,4 0 1,8
13.01.2018 08:00:00 1,2 0,4 3 2 7 4 OZO 1018,7 2,4 0 0,0
13.01.2018 07:00:00 1,0 0,3 4 2 10 5 OZO - - 0 -
13.01.2018 06:00:00 1,1 0,4 5 3 12 6 OZO 1019,8 0,2 0 0,0
13.01.2018 05:00:00 1,2 0,4 3 2 7 4 ZO 1020,9 0,5 0 0,0
13.01.2018 04:00:00 0,9 0,0 1 1 8 5 O 1021,3 0,8 0 0,0
13.01.2018 03:00:00 1,3 0,2 3 2 8 4 Z 1021,7 2,7 0 0,0
13.01.2018 02:00:00 1,2 0,2 3 2 5 3 O 1022,2 2,3 0 0,0
13.01.2018 01:00:00 1,4 0,2 1 1 5 3 N 1023,5 3,3 0 -
13.01.2018 00:00:00 1,7 0,6 2 1 8 5 O 1023,7 4,1 0 0,0
12.01.2018 23:00:00 2,0 0,6 0 0 5 3 N 1024,2 8 0 0,0
12.01.2018 22:00:00 1,8 0,4 2 1 14 7 N 1024,5 8 0 0,0
12.01.2018 21:00:00 2,0 0,6 1 1 5 3 ONO 1024,7 11 0 0,0
12.01.2018 20:00:00 2,2 0,6 3 1 6 3 OZO 1025,0 8 0 0,0
12.01.2018 19:00:00 2,7 0,9 3 2 9 5 OZO 1025,3 15 0 -
12.01.2018 18:00:00 3,0 0,6 3 2 16 9 ZZO 1025,5 20 0 0,0
12.01.2018 17:00:00 3,9 0,9 5 3 13 7 ZZO 1025,3 20 0 0,0
12.01.2018 16:00:00 5,0 0,4 6 3 14 8 Z 1025,1 20 1 0,0
12.01.2018 15:00:00 4,9 0,2 5 3 10 6 ZZO 1025,6 20 25 0,0
12.01.2018 14:00:00 4,3 0,0 0 0 10 5 N 1026,5 20 0 0,0
12.01.2018 13:00:00 3,6 -0,5 2 1 8 5 NO 1027,6 20 1 -
12.01.2018 12:00:00 1,9 -1,0 3 2 7 4 W 1029,1 20 3 0,0
12.01.2018 11:00:00 -0,5 -2,5 1 1 5 3 O 1030,1 20 2 0,0
12.01.2018 10:00:00 -1,7 -3,0 2 1 9 5 ZW 1030,4 19 16 0,0
12.01.2018 09:00:00 -2,7 -4,2 2 1 6 4 WZW 1030,4 20 0 0,0
12.01.2018 08:00:00 -2,0 -3,6 1 1 11 6 Z 1029,8 20 0 0,0
12.01.2018 07:00:00 -1,8 -3,3 2 1 9 5 Z 1029,3 20 0 -
12.01.2018 06:00:00 -1,9 -3,6 1 1 10 6 O 1029,6 20 0 0,0
12.01.2018 05:00:00 -1,9 -3,6 3 1 6 3 W 1029,7 20 0 0,0
12.01.2018 04:00:00 -0,9 -2,7 2 1 11 6 NW 1029,7 20 0 0,0
12.01.2018 03:00:00 -1,0 -3,3 2 1 9 5 ZW 1029,7 20 0 0,0
12.01.2018 02:00:00 -0,2 -3,0 3 2 16 8 ZZO 1029,7 20 0 0,0
12.01.2018 01:00:00 1,0 -2,5 5 3 13 7 Z 1028,8 20 0 -
12.01.2018 00:00:00 2,5 -2,2 10 5 23 13 WNW 1028,1 20 0 0,0
11.01.2018 23:00:00 2,3 -2,5 11 6 22 12 W 1027,9 20 0 0,0
11.01.2018 22:00:00 3,0 -2,2 10 5 20 11 W 1027,4 20 0 0,0
11.01.2018 21:00:00 3,1 -2,2 6 4 21 11 W 1027,3 20 0 0,0
11.01.2018 20:00:00 4,4 -2,0 9 5 20 11 W 1026,2 20 0 0,0
11.01.2018 19:00:00 5,2 -2,0 10 5 22 12 WNW 1025,7 20 0 -
11.01.2018 18:00:00 6,4 -1,7 6 3 29 16 W 1025,0 20 36 0,0
11.01.2018 17:00:00 7,9 -2,0 16 9 45 24 W 1023,9 20 60 0,0
11.01.2018 16:00:00 8,1 -2,2 23 12 45 24 NW 1023,3 20 59 0,0
11.01.2018 15:00:00 7,8 -2,2 23 12 54 29 WNW 1022,8 20 60 0,0
11.01.2018 14:00:00 7,4 -2,7 28 15 56 30 NW 1023,0 20 60 0,0
11.01.2018 13:00:00 - - - - - - - - - - -
11.01.2018 12:00:00 - - - - - - - - - - -
11.01.2018 11:00:00 - - - - - - - - - - -
11.01.2018 10:00:00 - - - - - - - - - - -
11.01.2018 09:00:00 - - - - - - - - - - -
11.01.2018 08:00:00 0,9 -1,4 5 3 13 7 WNW 1023,5 20 0 0,0

tt = temperatuur
td = dauwpunt
ff = windsnelheid
fx = windstoten
dd = windrichting
ppp = luchtdruk
vv = zicht
sd = Zonneschijnduur
rr = neerslag

Weerstations in de omgeving